User: anonymous   Login
Location: Clayton (historical)
(34.0300°N, 118.0259°W)
Time: 12:00:19
(UTC+00:00)
Language:

Meteor 1-31 Rocket - Orbit

View from above orbital plane
View from above orbital plane
View from above satellite
View from above satellite

Ground track
Ground track

The orbit data is extracted from the following two-line orbital elements,

1 12586U 81065B   21022.91738356  .00000397  00000-0  27721-4 0  9993
2 12586  97.6436  10.9958 0018974  10.7392 349.4239 15.10916182150950
Epoch (UTC): 22 January 2021 22:01:01
Eccentricity: 0.0018974
inclination: 97.6436°
perigee height: 520 km
apogee height: 546 km
right ascension of ascending node: 10.9958°
argument of perigee: 10.7392°
revolutions per day: 15.10916182
mean anomaly at epoch: 349.4239°
orbit number at epoch: 15095

The dashed part of the orbit path shows where the satellite is in the earth's shadow,  

DLR